| time (UTC) | temp F | wind direction | speed knots | gust knots | rain 1hr in | rain 24hr in | rain mn in | humidity % | barometer mb |
| 20260503200148 | 60 | 195 | 5.2 | 12.2 | 0.00 | 0.00 | 0.00 | 35 | 1013.2 |
| 20260503195113 | 59 | 242 | 6.1 | 11.3 | 0.00 | 0.00 | 0.00 | 34 | 1013.4 |
| 20260503194104 | 61 | 242 | 3.5 | 10.4 | 0.00 | 0.00 | 0.00 | 35 | 1013.5 |
| 20260503193041 | 60 | 267 | 6.1 | 13.0 | 0.00 | 0.00 | 0.00 | 35 | 1013.8 |
| 20260503192101 | 59 | 315 | 7.0 | 15.6 | 0.00 | 0.00 | 0.00 | 36 | 1013.8 |
| 20260503191125 | 60 | 292 | 7.0 | 15.6 | 0.00 | 0.00 | 0.00 | 35 | 1013.9 |
| 20260503190136 | 60 | 279 | 3.5 | 10.4 | 0.00 | 0.00 | 0.00 | 36 | 1013.9 |
| 20260503184025 | 60 | 248 | 3.5 | 15.6 | 0.00 | 0.00 | 0.00 | 36 | 1014.2 |
| 20260503181928 | 58 | 323 | 4.3 | 11.3 | 0.00 | 0.00 | 0.00 | 39 | 1014.3 |
| 20260503180937 | 57 | 236 | 5.2 | 15.6 | 0.00 | 0.00 | 0.00 | 38 | 1014.5 |
| 20260503175945 | 57 | 252 | 4.3 | 15.6 | 0.00 | 0.00 | 0.00 | 39 | 1014.5 |
| 20260503174942 | 56 | 250 | 3.5 | 13.0 | 0.00 | 0.00 | 0.00 | 38 | 1014.6 |
| 20260503173927 | 56 | 240 | 4.3 | 11.3 | 0.00 | 0.00 | 0.00 | 39 | 1014.8 |
| 20260503172906 | 57 | 230 | 3.5 | 13.9 | 0.00 | 0.00 | 0.00 | 39 | 1014.8 |
| 20260503171835 | 56 | 273 | 5.2 | 13.9 | 0.00 | 0.00 | 0.00 | 38 | 1015.0 |
| 20260503150254 | 52 | 272 | 2.6 | 8.7 | 0.00 | 0.00 | 0.00 | 40 | 1016.2 |
| 20260503140226 | 49 | 257 | 2.6 | 8.7 | 0.00 | 0.00 | 0.00 | 49 | 1016.2 |
| 20260503130949 | 47 | 190 | 2.6 | 8.7 | 0.00 | 0.00 | 0.00 | 57 | 1016.5 |
| 20260503110646 | 33 | 296 | 0.0 | 0.0 | 0.00 | 0.00 | 0.00 | 83 | 1016.2 |
| 20260503081516 | 37 | 296 | 0.0 | 0.0 | 0.00 | 0.00 | 0.00 | 72 | 1014.8 |
| 20260503080541 | 37 | 296 | 0.0 | 0.0 | 0.00 | 0.00 | 0.00 | 71 | 1014.9 |
| 20260503072426 | 39 | 296 | 0.0 | 0.0 | 0.00 | 0.00 | 0.00 | 68 | 1014.7 |
| 20260503071435 | 39 | 298 | 0.0 | 0.0 | 0.00 | 0.00 | 0.00 | 68 | 1014.7 |
| 20260503070402 | 40 | 298 | 0.0 | 0.0 | 0.00 | 0.00 | 0.00 | 67 | 1014.6 |
| 20260503054432 | 42 | 305 | 0.0 | 2.6 | 0.00 | 0.00 | 0.00 | 64 | 1014.5 |
| 20260503053430 | 42 | 286 | 0.0 | 4.3 | 0.00 | 0.00 | 0.00 | 63 | 1014.4 |
| 20260503052430 | 43 | 285 | 0.9 | 4.3 | 0.00 | 0.00 | 0.00 | 63 | 1014.5 |
| 20260503051442 | 43 | 313 | 0.9 | 2.6 | 0.00 | 0.00 | 0.00 | 63 | 1014.4 |
| 20260503050500 | 43 | 310 | 0.9 | 6.1 | 0.00 | 0.00 | 0.00 | 61 | 1014.4 |
| 20260503045445 | 43 | 277 | 0.9 | 7.8 | 0.00 | 0.00 | 0.00 | 62 | 1014.5 |
| 20260503044450 | 43 | 266 | 0.9 | 7.8 | 0.00 | 0.00 | 0.00 | 61 | 1014.6 |
| 20260503043425 | 43 | 296 | 0.9 | 5.2 | 0.00 | 0.00 | 0.00 | 62 | 1014.7 |
| 20260503041302 | 43 | 286 | 0.9 | 5.2 | 0.00 | 0.00 | 0.00 | 63 | 1014.6 |
| 20260503040259 | 44 | 263 | 0.9 | 2.6 | 0.00 | 0.00 | 0.00 | 63 | 1014.7 |
| 20260503035248 | 44 | 279 | 0.9 | 5.2 | 0.00 | 0.00 | 0.00 | 63 | 1014.8 |
| 20260503034238 | 44 | 263 | 0.9 | 5.2 | 0.00 | 0.00 | 0.00 | 63 | 1014.7 |
| 20260503033247 | 44 | 274 | 0.9 | 4.3 | 0.00 | 0.00 | 0.00 | 63 | 1014.8 |
| 20260503031110 | 44 | 267 | 0.9 | 5.2 | 0.00 | 0.00 | 0.00 | 64 | 1014.9 |
| 20260503030105 | 44 | 284 | 0.9 | 5.2 | 0.00 | 0.00 | 0.00 | 64 | 1014.9 |
| 20260503023955 | 44 | 259 | 0.9 | 2.6 | 0.00 | 0.00 | 0.00 | 65 | 1015.2 |
| 20260503021917 | 45 | 285 | 1.7 | 6.1 | 0.00 | 0.00 | 0.00 | 65 | 1015.2 |
| 20260503020858 | 45 | 274 | 0.9 | 6.1 | 0.00 | 0.00 | 0.00 | 67 | 1015.1 |
| 20260503014759 | 45 | 263 | 0.9 | 3.5 | 0.00 | 0.00 | 0.00 | 67 | 1014.9 |
| 20260503013737 | 45 | 270 | 0.0 | 1.7 | 0.00 | 0.00 | 0.00 | 69 | 1014.9 |
| 20260503012746 | 45 | 269 | 0.0 | 0.0 | 0.00 | 0.00 | 0.00 | 68 | 1014.8 |
| 20260503011732 | 45 | 277 | 0.0 | 4.3 | 0.00 | 0.00 | 0.00 | 67 | 1014.7 |
| 20260503010750 | 45 | 273 | 0.0 | 1.7 | 0.00 | 0.00 | 0.00 | 67 | 1014.6 |
| 20260503005809 | 46 | 298 | 0.9 | 5.2 | 0.00 | 0.00 | 0.00 | 66 | 1014.5 |
| 20260503004804 | 46 | 299 | 0.9 | 5.2 | 0.00 | 0.00 | 0.00 | 65 | 1014.4 |
| 20260503003740 | 46 | 299 | 0.9 | 4.3 | 0.00 | 0.02 | 0.00 | 66 | 1014.3 |
| 20260503002805 | 46 | 285 | 0.9 | 4.3 | 0.00 | 0.02 | 0.00 | 66 | 1014.2 |
| 20260503001819 | 46 | 273 | 0.9 | 8.7 | 0.00 | 0.02 | 0.00 | 66 | 1014.1 |
| 20260503000801 | 46 | 273 | 0.9 | 8.7 | 0.00 | 0.02 | 0.00 | 66 | 1014.1 |
| 20260502235741 | 46 | 288 | 0.9 | 7.0 | 0.00 | 0.02 | 0.00 | 64 | 1014.1 |
| 20260502234751 | 46 | 296 | 1.7 | 7.0 | 0.00 | 0.03 | 0.00 | 64 | 1014.0 |
| 20260502232606 | 47 | 282 | 0.9 | 6.1 | 0.00 | 0.03 | 0.00 | 64 | 1014.0 |
| 20260502231623 | 47 | 308 | 0.9 | 6.1 | 0.00 | 0.03 | 0.00 | 64 | 1013.9 |
| 20260502230557 | 47 | 304 | 1.7 | 6.1 | 0.00 | 0.03 | 0.00 | 64 | 1013.9 |
| 20260502225557 | 48 | 322 | 1.7 | 9.6 | 0.00 | 0.03 | 0.00 | 65 | 1013.8 |
| 20260502223422 | 48 | 298 | 2.6 | 7.8 | 0.00 | 0.03 | 0.00 | 64 | 1013.7 |
| 20260502222411 | 49 | 85 | 0.9 | 4.3 | 0.00 | 0.03 | 0.00 | 63 | 1013.7 |
| 20260502221414 | 49 | 228 | 0.9 | 5.2 | 0.00 | 0.03 | 0.00 | 62 | 1013.7 |
| 20260502220425 | 48 | 288 | 0.9 | 5.2 | 0.00 | 0.03 | 0.00 | 62 | 1013.7 |
| 20260502214240 | 49 | 290 | 0.9 | 7.0 | 0.00 | 0.03 | 0.00 | 60 | 1013.6 |
| 20260502213214 | 49 | 236 | 0.9 | 4.3 | 0.00 | 0.03 | 0.00 | 60 | 1013.5 |
| 20260502212212 | 49 | 23 | 0.9 | 7.0 | 0.00 | 0.03 | 0.00 | 60 | 1013.4 |
| 20260502211158 | 49 | 268 | 0.9 | 2.6 | 0.00 | 0.03 | 0.00 | 61 | 1013.3 |
| 20260502210137 | 48 | 288 | 0.9 | 7.8 | 0.00 | 0.03 | 0.00 | 62 | 1013.3 |
| 20260502204029 | 48 | 311 | 2.6 | 9.6 | 0.00 | 0.03 | 0.00 | 64 | 1013.3 |
| 20260502203045 | 48 | 98 | 2.6 | 9.6 | 0.00 | 0.03 | 0.00 | 64 | 1013.4 |
| 20260502202023 | 49 | 274 | 3.5 | 11.3 | 0.00 | 0.03 | 0.00 | 68 | 1013.4 |
| 20260502200951 | 51 | 261 | 3.5 | 10.4 | 0.00 | 0.03 | 0.00 | 57 | 1013.3 |